Regional Weather Roundup
Issued by NWS Upton, NY

Current Version | Previous Version | Graphics & Text | Print | Product List | Glossary Off
Versions: 1 2 3 4 5 6 7 8 9 10 11 12 13 14 15 16 17 18 19 20 21 22 23 24 25 26 27 28 29

000
ASUS41 KOKX 261804
RWROKX

REGIONAL WEATHER ROUNDUP
NATIONAL WEATHER SERVICE NEW YORK NY
200 PM EDT FRI AUG 26 2016

NOTE: "FAIR" INDICATES FEW OR NO CLOUDS BELOW 12,000 FEET WITH NO
SIGNIFICANT WEATHER AND/OR OBSTRUCTIONS TO VISIBILITY.

NYZ071-072-176-178-NJZ106-104-261900-
NEW YORK CITY METRO AREA

CITY           SKY/WX    TMP DP  RH WIND       PRES   REMARKS
Central Park     N/A     88  66  48 MISG        N/A  HX  90
LaGuardia APRT MOSUNNY   90  68  48 NW16G22   29.96F HX  94
Kennedy INTL   MOSUNNY   90  68  48 N16G23    29.97F HX  94
Newark/Liberty MOSUNNY   92  67  43 NW13G22   29.97S HX  95
Bronx Bot Gard   N/A     90  68  48 NW9       29.97F HX  93
Wall St Helipt PTCLDY    93  70  46 W6        29.98S HX  99
Teterboro      PTSUNNY   90  68  48 NW15G21   29.96S HX  94
$$

NYZ177-179-078>081-261900-
LONG ISLAND NEW YORK

CITY           SKY/WX    TMP DP  RH WIND       PRES   REMARKS
Farmingdale    MOSUNNY   92  68  45 N9G20     29.97S HX  96
MacArthur/ISP  PTSUNNY   92  70  48 NW9       29.95F HX  97
Shirley        PTSUNNY   85  74  69 S10       29.96F HX  92
Riverhead      NOT AVBL
Westhampton    SUNNY     83  72  69 SW10      29.98S
Southampton      N/A     77  73  88 SW9       29.93S
Bridgehampton    N/A     86  77  74 S2        29.95S HX  97
East Hampton   PTSUNNY   82  74  75 SW7       29.96S
Montauk          N/A     82  75  79 VRB5      29.97F
$$

NYZ052-065-067-261900-
HUDSON VALLEY

CITY           SKY/WX    TMP DP  RH WIND       PRES   REMARKS
White Plains   PTSUNNY   87  68  52 N15       29.98F HX  90
Newburgh       MOSUNNY   86  72  62 NW16      30.02R HX  92
Montgomery     PTSUNNY   87  68  52 NW12G21   30.00S HX  90
Poughkeepsie   MOSUNNY   86  69  56 N9        29.98R HX  90
Albany         MOSUNNY   85  65  51 NW15      30.00R
$$

NJZ001-105-106-008-010-013-015-019>022-104-261900-
NEW JERSEY

CITY           SKY/WX    TMP DP  RH WIND       PRES   REMARKS
Newark/Liberty MOSUNNY   92  67  43 NW13G22   29.97S HX  95
Teterboro      PTSUNNY   90  68  48 NW15G21   29.96S HX  94
Caldwell       PTSUNNY   90  70  51 VRB7      30.00R HX  95
Morristown     PTSUNNY   88  70  55 N7        30.00S HX  92
Somerville     PTSUNNY   90  69  50 NW9       29.99R HX  94
Linden         FAIR      91  65  42 NW10G17   29.99S HX  94
Sussex         MOSUNNY   87  69  54 W9        30.03S HX  91
Abdover          N/A     87  68  52 VRB7G17   30.03S HX  90
Trenton        MOSUNNY   91  68  46 NW9       30.01R HX  95
Millville      SUNNY     91  73  55 NW14      30.02R HX  99
Atlantic City  PTSUNNY   92  69  47 W15       30.00S HX  97
Wrightstown    MOSUNNY   89  70  53 N7        29.97S HX  95
Toms River     PTSUNNY   91  71  51 NW10      30.00R HX  97
Belmar         MOSUNNY   91  70  49 NW14G20   30.00S HX  96
$$

PAZ047>061-062-071-261900-
EASTERN PENNSYLVANIA

CITY           SKY/WX    TMP DP  RH WIND       PRES   REMARKS
Philadelphia   MOSUNNY   91  67  44 NW14      30.01S HX  94
Allentown      MOSUNNY   90  67  46 N10G16    30.03S HX  93
Scranton       PTSUNNY   86  67  52 NW8       30.08R
$$

CTZ002-004>006-009-010-012-RIZ004-006-007-MAZ004-011-015-261900-
SOUTHERN NEW ENGLAND
 IN CT

CITY           SKY/WX    TMP DP  RH WIND       PRES   REMARKS
Bradley INTL   PTSUNNY   89  67  47 NW8G18    29.96R HX  92
Hartford       MOSUNNY   92  70  48 N12       29.94S HX  97
Danbury        PTSUNNY   85  70  60 N9        30.00S
Wtrbury/Oxford MOSUNNY   82  68  61 N9G17     30.03S
Bridgeport     MOSUNNY   89  73  59 SW12      29.95F HX  97
Meriden        PTSUNNY   92  69  47 W7        29.94F HX  97
New Haven      PTSUNNY   84  73  69 VRB5      29.96S HX  90
Chester        LGT RAIN  81  73  78 VRB6G13   29.97S
Groton         SUNNY     84  73  69 SW10      29.94F HX  90
Wilimantic     PTSUNNY   88  73  61 NW6       29.96S HX  95

 IN RI

CITY           SKY/WX    TMP DP  RH WIND       PRES   REMARKS
Providence     PTSUNNY   89  71  55 W9        29.94F HX  95
Block Island   MOSUNNY   81  73  76 SW16      29.97F
Westerly       MOSUNNY   84  70  62 SW8       29.96F
 IN MA

CITY           SKY/WX    TMP DP  RH WIND       PRES   REMARKS
Boston         PTSUNNY   90  71  53 W12       29.92F HX  96
Worcester      MOSUNNY   81  67  62 W9        30.00S
Westfield      CLOUDY    88  67  49 NW10      29.96S HX  91
Provincetown   CLOUDY    79  73  82 SW13      29.94F
Nantucket      CLOUDY    78  72  81 SW12      29.98F
$$

ANZ330-335-338-340-345-350-353-355-261900-
COASTAL MARINE OBSERVATIONS


STATION/POSITION TIME  SKY/WX   TEMP    WIND        PRES    VSBY  WAVE
                                AIR SEA DIR/SP/G                  HT/PER
                 (UTC)          (F)     (DEG/KT/KT) (MB)    (MI)  (FT/S)
NY HARB ENTRANCE 1650            77 74  200/  6/  6 1015.0          3/ 5
20S FIRE ISLAND  1650            76 75  230/  8/ 10 1015.0          4/ 5
GREAT SOUTH BAY  1700            77 79  220/ 12/ 14   N/A
23 SSW MONTAUK P 1650            76 74  230/ 14/ 17 1015.4          4/ 5
15 E BARNEGAT LI 1700               75                N/A           4/ 5
HUDSON CANYON    1650            79 78              1015.6          4/ 6
KINGS POINT      1700            84 78              1014.9
EXECUTION ROCKS  1700            85     310/  8/ 12   N/A
CENTRAL LI SOUND 1715            79 76  230/  4/  8   N/A           1/ 3
EASTERN LI SOUND 1700            77 71  240/  4/  6   N/A
ROBBINS REEF     1700            87     350/ 12/ 16 1014.3
$$


>>>>>>>>>>>>>>>>>>>>>>>>>>>> KEY <<<<<<<<<<<<<<<<<<<<<<<<<<<
>                                                          <
>     SKY/WX - Sky Condition/Present Weather               <
>     TMP    - Temperature in Fahrenheit                   <
>     DP     - Dew Point in Fahrenheit                     <
>     RH     - Relative Humidity in Percent                <
>     WIND   - Direction (from) and Speed in MPH           <
>     PRES   - Mean Sea Level Pressure (inches of Hg)      <
>     WCI    - Wind Chill Index                            <
>     VSB    - VISIBILITY IN MILES                         <
>     HX     - HEAT INDEX                                  <
>     TC     - TEMPERATURE IN CELSIUS                      <
>     VRB    - VARIABLE WIND DIRECTION                     <
>                                                          <
>>>>>>>>>>>>>>>>>>>>>>>>>>>> KEY <<<<<<<<<<<<<<<<<<<<<<<<<<<




USA.gov is the U.S. government's official web portal to all federal, state and local government web resources and services.